RH
36 32 30 27 26 25 23 21 18 16 15 19 22 23 28 31 34 36 37 38 39 40 40 42 44 47 49
33 30 29 28 27 24 22 19 16 13 14 19 25 28 31 32 34 38 39 39 40 40 40 40 41 41 43
31 31 30 29 26 24 21 18 16 16 20 24 28 29 32 34 36 38 35 36 36 36 36 37 41 43 42
31 31 30 27 25 23 22 18 20 24 27 31 32 32 34 35 36 35 35 34 38 38 38 39 40 45 45
32 30 28 27 26 22 21 24 27 32 31 32 37 38 39 40 40 39 39 39 43 44 45 44 44 49 50
30 29 27 24 21 22 29 33 32 36 39 39 44 42 45 45 46 47 47 50 51 50 51 50 50 51 54
27 24 22 21 28 34 40 41 43 45 49 43 49 46 51 49 53 55 57 59 60 60 58 57 56 56 59
20 18 23 33 42 44 46 47 49 52 60 49 55 53 55 57 64 70 75 76 70 68 64 61 60 62 62
18 25 36 42 46 49 53 56 55 59 71 73 67 67 68 66 71 80 83 83 78 70 64 63 64 67 64
28 37 43 49 57 64 67 70 74 66 75 78 73 79 66 61 64 75 78 83 82 74 68 66 67 68 65
37 44 52 59 66 70 72 73 71 71 78 86 76 83 85 69 63 69 75 78 75 72 69 63 63 64 65
47 54 59 64 64 66 64 66 70 75 78 92 87 89 85 75 66 68 77 76 73 68 63 60 60 61 64
56 63 62 61 64 58 59 62 64 72 78 84 86 85 82 77 72 72 69 66 68 64 62 59 59 60 60
64 63 64 66 64 63 63 65 63 62 71 75 76 76 75 76 73 65 63 64 65 65 63 60 61 66 70
65 64 69 70 71 75 77 77 77 71 65 68 72 73 74 74 71 71 69 70 70 68 70 71 76 79 78
65 70 72 74 75 78 84 87 88 88 88 88 86 81 79 81 83 80 81 81 79 80 83 83 82 82 77
70 74 76 77 78 81 87 91 92 94 94 96 94 95 92 90 89 90 83 85 89 88 85 88 86 84 83